Погода в Рогатой Балке

Россия / Ставропольский край     45°12′18″N   43°02′34″E
В апреле 2022 года жителям России запретили посещать сайт meteo.paraplan.net по решению Генеральной прокуратуры. Аудитория сайта уменьшилась в 10 раз. Владельцы сайта не видят смысла в поддержке погодного сервера в таких условиях. Сайт будет закрыт в октябре.
темп.,
°C
ветер,
м/с
пор.,
м/с
влажн.,
%
обл.,
%
осадки,
мм/ч
давл.,
гПа
погр.,
м
30 сентября, пт
пт3000:00+18юз116882 0.0 101611
03:00+19ююз1166100 0.1 101711
06:00+17ююз127577 0.0 101820
09:00+21ю12605 0.0 1018389
12:00+25ю234579 0.0 10181829
15:00+26юв124184 0.0 10181297
18:00+23в3654100 0.0 1019180
21:00+22юв3458100 0.1 1020104
1 октября, сб
сб100:00+21всв115883 0.1 101919
03:00+19ю22640 0.1 102017
06:00+18юз22700 0.2 102113
09:00+22з22540 0.4 1022363
12:00+26сз22390 0.0 10211595
15:00+27сз22325 0.0 10202247
18:00+23ссз114221 0.0 101911
21:00+21всв114711 0.0 101911
2 октября, вс
вс200:00+20вюв2251100 0.0 101812
03:00+19юв225610 0.0 101711
06:00+18ююв336043 0.0 101638
09:00+23ююв5742100 0.0 1015362
12:00+26юв6732100 0.0 10131129
15:00+27вюв5629100 0.0 10111401
18:00+22вюв4939100 0.0 1010167
21:00+20вюв61256100 0.0 1008293
3 октября, пн
пн300:00+18юв51063100 0.0 1006270
03:00+16юв4879100 0.0 1006228
06:00+15ююв3588100 0.0 1006135
09:00+20зсз4857100 0.0 1007561
12:00+21ссз6758100 0.0 1009847
15:00+19ссз5570100 0.1 1010821
18:00+16сз4686100 0.7 1013334
21:00+15сз4789100 1.3 1015466
4 октября, вт
вт400:00+14сз2591100 4.1 1016397
03:00+13сз2691100 10.1 1017490
06:00+13сз2487100 3.9 1018421
09:00+12з2287100 4.8 1019234
12:00+12зюз0086100 5.2 1021318
15:00+12юв1184100 6.8 1021318
18:00+12ююв2283100 0.0 1022127
21:00+11юв2290100 0.0 102221